This is the latest recevied weather packets stored in our database for station/object KO4ZGL-13. If no packets are shown the sender has not sent any weather packets the latest 10 day(s).
| Time | Temp. | Humidity | Pressure | Rain* | Wind** | Luminosity | Snow |
|---|---|---|---|---|---|---|---|
| 1787867521 | 27.78° C | 87% | 1015.1 hPa | 0 mm | - | 82 W/m² | - |
| 1787867215 | 28.33° C | 85% | 1014.8 hPa | 0 mm | - | 107 W/m² | - |
| 1787866911 | 27.78° C | 85% | 1014.6 hPa | 0 mm | - | 138 W/m² | - |
| 1787866606 | 27.78° C | 85% | 1014.7 hPa | 0 mm | - | 111 W/m² | - |
| 1787866304 | 28.33° C | 84% | 1014.8 hPa | 0 mm | - | 115 W/m² | - |
| 1787865999 | 28.33° C | 84% | 1014.9 hPa | 0 mm | - | 115 W/m² | - |
| 1787865695 | 28.33° C | 84% | 1015.1 hPa | 0 mm | - | 115 W/m² | - |
| 1787865394 | 28.33° C | 84% | 1014.9 hPa | 0 mm | - | 155 W/m² | - |
| 1787865090 | 28.33° C | 84% | 1014.9 hPa | 0 mm | - | 157 W/m² | - |
| 1787864785 | 28.89° C | 84% | 1014.6 hPa | 0 mm | - | 151 W/m² | - |
| 1787864479 | 28.89° C | 84% | 1014.5 hPa | 0 mm | - | 112 W/m² | - |
| 1787864174 | 29.44° C | 83% | 1014.7 hPa | 0 mm | - | 114 W/m² | - |
| 1787863869 | 29.44° C | 82% | 1014.7 hPa | 0 mm | - | 135 W/m² | - |
| 1787863567 | 29.44° C | 82% | 1014.6 hPa | 0 mm | - | 181 W/m² | - |
| 1787863262 | 28.89° C | 82% | 1014.9 hPa | 0 mm | - | 170 W/m² | - |
| 1787862958 | 28.89° C | 81% | 1014.9 hPa | 0 mm | - | 133 W/m² | - |
| 1787862652 | 29.44° C | 82% | 1014.7 hPa | 0 mm | - | 170 W/m² | - |
| 1787862349 | 28.89° C | 81% | 1014.7 hPa | 0 mm | - | 205 W/m² | - |
| 1787862043 | 29.44° C | 81% | 1014.3 hPa | 0 mm | - | 182 W/m² | - |
| 1787861743 | 30° C | 81% | 1014.1 hPa | 0 mm | - | 245 W/m² | - |
| 1787861441 | 30° C | 82% | 1014.2 hPa | 0 mm | - | 362 W/m² | - |
| 1787861136 | 30° C | 82% | 1014.4 hPa | 0 mm | - | 423 W/m² | - |
| 1787860835 | 30° C | 82% | 1014 hPa | 0 mm | - | 308 W/m² | - |
| 1787860529 | 30° C | 81% | 1014.4 hPa | 0 mm | - | 212 W/m² | - |
| 1787860225 | 30° C | 80% | 1014.4 hPa | 0 mm | - | 217 W/m² | - |
* Rain latest hour (hover to see other rain measurements)
** Current wind speed in m/s (hover to see current wind gust speed)